Погода Благодарный

Погода Благодарный : погода сейчас, прогноз погоды и архив. Всё, что Вы хотите узнать о погоде Благодарный!

Поиск расширенной информации на нашем сайте:

Другие новости

Новости СМИ2

Главная страница сайта

Новости сайта

02.10.2013

Напоминаем, что на нашем новом сайте вы можете получить высокодетализированные прогнозы погоды по пунктам России, СНГ и мира (включающие важные для авиации метеовеличины, такие как направление и скорость ветра, видимость, явления погоды, количество и форма облачности, нижняя и верхняя граница облачности), а также ознакомиться с разнообразными материалами по авиационной метеорологии и подборкой полезных ссылок на эту тему.

Сайт Метеоцентр.Азия посвящён разработке технологий оптимизации авиаметеорологического обслуживания, включая проектирование и перспективное создание нескольких автоматизированных авиаметеорологических систем:
- система выпуска высокодетальных прогностических карт явлений погоды для нижнего воздушного пространства по России и ближнему зарубежью;
- система верификации прогнозов TAF (выпускаемых синоптиками официальных АМСГ РФ и ближнего зарубежья) и AUTOTAF (выпускаемых сайтом Метеоцентр.Азия) - выявление ошибок, онлайн-сопоставление с фактической погодой METAR, автоматическое внесение коррективов в прогнозы при резком отклонении фактической погоды от прогноза, подсчёт оправдываемости прогнозов по элементам и в целом;
- система обработки, анализа и отображения авиаметеорологической информации для применения провайдерами метеорологической информации.

Рекомендуем: Тефлоновый коврик для выпечки купить лист тефлоновый купить.

Погода Благодарный - сегодня

Время (UTC), дата Ветер
(°,м/с) 
Видим.   Явления Облачность Т
(°С)
Тd
(°С)
f(%) Тe
(°С)
Pmin
(гПа)
dP
(гПа)
Po
(мм)
O2
(г/м3)
Тmin Tmax R s Состояние
почвы
00 22.03.17 260 (З) 20000 м    3/3 600 м 
[Sc]
+3 +0.4 83 +2  1014.9  0.3  746  297           
03 22.03.17 270 (З) 4-10{10}  20000 м    10/10 600 м 
[Sc]
+3.4 +0.2 80 +1  1014.5  -0.3  746  297  +2.9         
06 22.03.17 270 (З) 4{11}  10 км  слаб. ливневой дождь  10/10 600 м кучево-дожд. 
[Cb cap]
+2.6 +1 89 +1  1015.2  0.7  746  298  +2.6         
09 22.03.17 280 (З) 6-11{12}  10 км  слаб. ливневой дождь  10/10 600 м кучево-дожд. 
[Cb cap]
+3.9 +1.7 86 +1  1014.9  -0.2  746  296           
12 22.03.17 290 (З) 4{11}  10 км  слаб. ливневой дождь  10/10 600 м кучево-дожд. 
[Cb cap]
+4.7 +2.3 84 +3  1015.6  0.7  747  295           
15 22.03.17 320 (СЗ) 2{10}  10 км  слаб. ливневой дождь  10/10 600 м кучево-дожд. 
[Cb cap]
+2.2 +0.7 90 +2  1017.9  2.1  748  299    +5.1     
18 22.03.17 290 (З) 20000 м  {ливн. осадки}  10/10 300 м 
[St]
+2.1 +0.5 89 +3  1019.2  1.2  749  299           
21 22.03.17 310 (СЗ) 20000 м    10/10 300 м 
[St]
+1.9 -0.1 87 +3  1019.4  0.2  749  300           
00 23.03.17 340 (С) 20000 м    10/10 300 м 
[St]
+1.4 -0.1 90 +1  1020.2  0.7  750  301           
03 23.03.17 340 (С) 20000 м    10/10 300 м 
[St]
+0.8 -0.7 90 -1  1021.7  1.4  751  302  +0.8    0.0     
06 23.03.17 330 (СЗ) 20000 м    10/10 600 м кучево-дожд. 
[Cb cap]
+1.4 -0.6 87 +2  1023.2  1.5  752  302  +0.7         
09 23.03.17 330 (СЗ) 20000 м    10/10 600 м кучево-дожд. 
[Cb cap]
+3.1 +0.1 81 +4  1023.8  0.7  753  300           
12 23.03.17 360 (С) 20000 м    10/10 600 м кучево-дожд. 
[Cb cap]
+5.1 +0.4 72 +4  1024.1  0.4  753  298           
15 23.03.17 360 (С) 20000 м    10/10 600 м кучево-дожд. 
[Cb cap]
+4.7 +0.7 75 +6  1025  0.8  754  298    +5.3       
18 23.03.17 050 (СВ) 20000 м    10/10 600 м 
[Sc]
+3.6 +1.2 84 +4  1026.6  1.4  755  300           
21 23.03.17 080 (В) 20000 м    10/10 600 м 
[Sc]
+2.9 +1.3 89 +4  1026.9  0.3  755  301           
00 24.03.17 100 (В) 20000 м    10/10 600 м 
[Sc]
+2.8 +1.2 89 +4  1026.8  0.1  755  301           
03 24.03.17 100 (В) 20000 м    10/10 600 м 
[Sc]
+2.8 +1.2 89 +4  1027.4  0.6  755  301  +2.7         
06 24.03.17 110 (В) 20000 м    10/10 600 м 
[Sc]
+3.7 +1.6 86 +3  1028.1  0.6  756  300  +2.6         
09 24.03.17 110 (В) 20000 м    10/10 600 м 
[Sc]
+6.1 +0.9 69 +6  1027.2  -0.8  755  298           
12 24.03.17 210 (ЮЗ) 20000 м    9/9 600 м 
[Sc]
+7.8 +0.8 61 +8  1025.7  -1.3  754  295           
15 24.03.17 190 (Ю) 20000 м    6/4 600 м верхняя 
[Sc|Ci fib]
+6.5 +0.6 66 +7  1025.2  -0.6  754  297    +8       
18 24.03.17 200 (Ю) 20000 м    ясно 
+2.5 -0.3 82 +3  1024.7  -0.8  753  301           
21 24.03.17 тихо ()   20000 м    8/8 600 м 
[Sc]
+1.8 +0.1 88 +2  1022.8  -1.9  752  301           
00 25.03.17 тихо ()   20000 м    ясно 
-1.6 -2.5 94 -2  1021.7  -1.3  751  305           
Время (UTC), дата Ветер
(°,м/с) 
Видим.   Явления Облачность Т
(°С)
Тd
(°С)
f(%) Тe
(°С)
Pmin
(гПа)
dP
(гПа)
Po
(мм)
O2
(г/м3)
Тmin Tmax R s Состояние
почвы

Для получения пояснительной информации подведите курсор к названию столбца.

ПОГОДА Благодарный - архив

Всё, что Вы хотите узнать о погоде Благодарный - удобно и подробно!

Выберите нужную дату (начиная с 1 января 2015* года) и нажмите кнопку "Найти".
Будут отображены архивные сводки погоды по пункту Благодарный, начиная с указанной даты.


Отображать данные в формате CSV (для использования в таблицах Excel)


Внимание! Наш архив погоды предназначен исключительно для личного некоммерческого использования в познавательных целях. Если Вам необходимы официальные справки о состоянии погоды (для производственных, юридических, коммерческих и т.п. целей), обращайтесь в органы Росгидромета.

*Примечание: данная дата относится к архиву по метеостанциям СССР (Россия, СНГ, Балтия).
Архив по метеостанциям Зарубежной Европы и Азии (кроме Китая) хранится 10 дней, по другим регионам земного шара (Китай, Африка, Америка, Австралия, Океания) - 1 день.

Благодарный - район местоположения метеостанции


Название, широта, долгота, высота метеостанции:
Благодарный 45.1°ш. 43.4°д. 162 м над ур. моря [Российская Федерация]

Дополнительная информация

В oтличие oт бoльшинства пoгoдных сайтoв мы публикуем пoдрoбную метеoинфoрмацию в детальнoм прoфессиoнальнoм фoрмате.

Характеристики температуры и влажнoсти вoздуха измеряются на высoте 2 м в тени вдали oт зданий и деревьев.
Скoрoсть ветра измеряется на высoте 10 м (на урoвне рoста челoвека скoрoсть ветра ниже в 1.5-2 раза). Если метеoстанция нахoдится в гoрoде или в лесу, тo скoрoсть ветра занижена на 2-4 м/с пo сравнению с oткрытым местoм. Скoрoсть ветра над акватoриями крупных рек и oзёр, а также на вершинах хoлмoв на 2-5 м/с выше, чем в oбычных услoвиях.
Атмoсфернoе давление в разных тoчках местнoсти мoжет значительнo oтличаться oт давления на метеoстанции, в зависимoсти oт услoвий рельефа (при пoдъёме на 10 м давление пoнижается примернo на 1 мм рт.ст.).